Weather History for Oakes, ND

Change the Weather History Date:

Monday, January 13, 2014

  Actual Average (KABR) Record (KABR)
Temperature  
Mean Temperature 20 °F 12 °F  
Max Temperature 28 °F 22 °F 56 °F (1987)
Min Temperature 14 °F 1 °F -40 °F (1912)
Degree Days  
Heating Degree Days 45 53  
Month to date heating degree days 689  
Since 1 July heating degree days 4180  
Cooling Degree Days 0 0  
Month to date cooling degree days 0  
Year to date cooling degree days 0  
Moisture  
Dew Point 19 °F    
Average Humidity 90    
Maximum Humidity 100    
Minimum Humidity 74    
Precipitation  
Precipitation 0.18 in 0.02 in 0.55 in (1923)
Month to date precipitation 0.23  
Year to date precipitation 0.23  
Snow  
Snow 0.00 in - - ()
Month to date snowfall  
Since 1 July snowfall  
Snow Depth -    
Sea Level Pressure  
Sea Level Pressure 29.59 in    
Wind  
Wind Speed 8 mph (West)    
Max Wind Speed 33 mph    
Max Gust Speed 43 mph    
Visibility 10 miles    
Events Snow    
T = Trace of Precipitation, MM = Missing Value Source: NWS Daily Summary

Daily Weather History Graph

Daily Weather History Graph

Search for Another Location

Airport:

Trip Planner

Search our weather history database for the weather conditions in past years. The results will help you decide how hot, cold, wet, or windy it might be!

Date:

Astronomy

Jan. 13, 2014 Rise Set
Actual Time 8:11 AM CST 5:10 PM CST
Civil Twilight 7:38 AM CST 5:44 PM CST
Nautical Twilight 7:00 AM CST 6:21 PM CST
Astronomical Twilight 6:24 AM CST 6:57 PM CST
Moon 3:27 PM CST (1/13) 6:00 AM CST (1/13)
Length of Visible Light 10h 06m
Length of Day
8h 58m
Waxing Gibbous, 95% of the Moon is Illuminated
Jan 13
Waxing Gibbous
Jan 15
Full
Jan 23
Last Quarter
Jan 30
New
Feb 6
First Quarter

Hourly Weather History & Observations

Time (CST) Temp. Windchill Dew Point Humidity Pressure Visibility Wind Dir Wind Speed Gust Speed Precip Events Conditions
12:15 AM 26.6 °F 16.2 °F 23.0 °F 86% 29.63 in 10.0 mi NW 11.5 mph - N/A   Partly Cloudy
12:35 AM 26.6 °F 15.2 °F 23.0 °F 86% 29.63 in 10.0 mi WNW 13.8 mph - N/A   Clear
12:55 AM 26.6 °F 16.2 °F 23.0 °F 86% 29.63 in 10.0 mi WNW 11.5 mph - N/A   Clear
1:15 AM 24.8 °F 13.4 °F 23.0 °F 93% 29.64 in 10.0 mi WNW 12.7 mph - N/A   Clear
1:35 AM 24.8 °F 15.3 °F 23.0 °F 93% 29.64 in 10.0 mi WNW 9.2 mph - N/A   Clear
1:55 AM 24.8 °F 16.9 °F 21.2 °F 86% 29.65 in 10.0 mi West 6.9 mph - N/A   Clear
2:15 AM 23.0 °F 12.4 °F 19.4 °F 86% 29.65 in 10.0 mi West 10.4 mph - N/A   Clear
2:35 AM 24.8 °F 15.3 °F 19.4 °F 80% 29.65 in 10.0 mi West 9.2 mph - N/A   Clear
2:55 AM 23.0 °F 14.7 °F 19.4 °F 86% 29.66 in 10.0 mi West 6.9 mph - N/A   Clear
3:15 AM 23.0 °F 13.9 °F 17.6 °F 80% 29.67 in 10.0 mi West 8.1 mph - N/A   Clear
3:35 AM 21.2 °F 12.6 °F 17.6 °F 86% 29.66 in 10.0 mi West 6.9 mph - N/A   Clear
3:55 AM 19.4 °F 12.8 °F 17.6 °F 93% 29.66 in 10.0 mi WSW 4.6 mph - N/A   Clear
4:15 AM 19.4 °F 7.2 °F 17.6 °F 93% 29.67 in 10.0 mi West 11.5 mph - N/A   Clear
4:35 AM 19.4 °F 10.4 °F 17.6 °F 93% 29.67 in 10.0 mi West 6.9 mph - N/A   Clear
4:55 AM 19.4 °F 10.4 °F 17.6 °F 93% 29.67 in 10.0 mi West 6.9 mph - N/A   Clear
5:15 AM 17.6 °F 10.7 °F 15.8 °F 93% 29.67 in 10.0 mi South 4.6 mph - N/A   Clear
5:35 AM 17.6 °F - 17.6 °F 100% 29.67 in 10.0 mi North - - N/A   Clear
5:55 AM 15.8 °F 8.6 °F 15.8 °F 100% 29.68 in 10.0 mi SW 4.6 mph - N/A   Clear
6:15 AM 17.6 °F 8.2 °F 15.8 °F 93% 29.67 in 10.0 mi West 6.9 mph - N/A   Clear
6:35 AM 15.8 °F 8.6 °F 15.8 °F 100% 29.68 in 10.0 mi SW 4.6 mph - N/A   Clear
6:55 AM 17.6 °F 9.3 °F 15.8 °F 93% 29.67 in 10.0 mi WSW 5.8 mph - N/A   Clear
7:15 AM 15.8 °F 7.2 °F 14.0 °F 93% 29.67 in 10.0 mi West 5.8 mph - N/A   Clear
7:35 AM 15.8 °F 3.4 °F 14.0 °F 93% 29.67 in 10.0 mi WNW 10.4 mph - N/A   Clear
7:55 AM 17.6 °F 7.3 °F 14.0 °F 86% 29.66 in 10.0 mi WNW 8.1 mph - N/A   Clear
8:15 AM 14.0 °F 2.0 °F 10.4 °F 86% 29.67 in 10.0 mi West 9.2 mph - N/A   Clear
8:35 AM 14.0 °F 5.1 °F 10.4 °F 86% 29.67 in 10.0 mi West 5.8 mph - N/A   Clear
8:55 AM 15.8 °F 6.1 °F 12.2 °F 86% 29.67 in 10.0 mi WNW 6.9 mph - N/A   Clear
9:15 AM 15.8 °F - 14.0 °F 93% 29.67 in 10.0 mi Calm Calm - N/A   Clear
9:35 AM 17.6 °F 10.7 °F 14.0 °F 86% 29.67 in 10.0 mi West 4.6 mph - N/A   Clear
9:55 AM 17.6 °F 10.7 °F 14.0 °F 86% 29.67 in 10.0 mi West 4.6 mph - N/A   Clear
10:15 AM 19.4 °F 14.3 °F 14.0 °F 80% 29.67 in 10.0 mi WNW 3.5 mph - N/A   Clear
10:35 AM 19.4 °F 14.3 °F 15.8 °F 86% 29.68 in 10.0 mi WSW 3.5 mph - N/A   Clear
10:55 AM 21.2 °F - 15.8 °F 80% 29.67 in 10.0 mi Calm Calm - N/A   Clear
11:15 AM 23.0 °F 18.4 °F 15.8 °F 74% 29.66 in 10.0 mi South 3.5 mph - N/A   Partly Cloudy
11:35 AM 23.0 °F 17.0 °F 15.8 °F 74% 29.65 in 10.0 mi South 4.6 mph - N/A   Mostly Cloudy
11:55 AM 23.0 °F 17.0 °F 17.6 °F 80% 29.62 in 10.0 mi SSE 4.6 mph - N/A   Partly Cloudy
12:15 PM 23.0 °F 17.0 °F 17.6 °F 80% 29.62 in 10.0 mi South 4.6 mph - N/A   Scattered Clouds
12:35 PM 23.0 °F 18.4 °F 19.4 °F 86% 29.62 in 10.0 mi South 3.5 mph - N/A   Overcast
12:55 PM 23.0 °F 14.7 °F 19.4 °F 86% 29.61 in 4.0 mi SSW 6.9 mph - N/A Snow Light Snow
1:15 PM 23.0 °F 14.7 °F 19.4 °F 86% 29.61 in 3.0 mi South 6.9 mph - 0.01 in Snow Light Snow
1:35 PM 24.8 °F 16.9 °F 21.2 °F 86% 29.58 in 9.0 mi South 6.9 mph - 0.01 in Snow Light Snow
1:55 PM 24.8 °F 16.1 °F 21.2 °F 86% 29.57 in 10.0 mi SSE 8.1 mph - 0.01 in   Overcast
2:15 PM 24.8 °F 16.1 °F 21.2 °F 86% 29.56 in 10.0 mi SSE 8.1 mph - N/A   Scattered Clouds
2:35 PM 26.6 °F 17.5 °F 21.2 °F 80% 29.54 in 10.0 mi SE 9.2 mph - N/A   Clear
2:55 PM 26.6 °F 16.8 °F 21.2 °F 80% 29.53 in 10.0 mi SSE 10.4 mph - N/A   Clear
3:15 PM 26.6 °F 17.5 °F 21.2 °F 80% 29.53 in 10.0 mi SE 9.2 mph - N/A   Clear
3:35 PM 26.6 °F 18.2 °F 21.2 °F 80% 29.53 in 10.0 mi SE 8.1 mph - N/A   Clear
3:55 PM 26.6 °F 16.8 °F 21.2 °F 80% 29.52 in 10.0 mi SSE 10.4 mph - N/A   Clear
4:15 PM 24.8 °F 16.1 °F 21.2 °F 86% 29.52 in 10.0 mi SE 8.1 mph - N/A   Clear
4:35 PM 23.0 °F 13.9 °F 21.2 °F 93% 29.52 in 10.0 mi SE 8.1 mph - N/A   Clear
4:55 PM 23.0 °F 13.9 °F 19.4 °F 86% 29.51 in 10.0 mi SE 8.1 mph - N/A   Clear
5:15 PM 19.4 °F 10.4 °F 19.4 °F 100% 29.50 in 10.0 mi SE 6.9 mph - N/A   Clear
5:35 PM 19.4 °F 10.4 °F 19.4 °F 100% 29.50 in 10.0 mi SE 6.9 mph - N/A   Clear
5:55 PM 19.4 °F 12.8 °F 17.6 °F 93% 29.49 in 10.0 mi East 4.6 mph - N/A   Clear
6:15 PM 21.2 °F 9.5 °F 21.2 °F 100% 29.47 in 10.0 mi East 11.5 mph - N/A   Partly Cloudy
6:35 PM 21.2 °F 12.6 °F 19.4 °F 93% 29.47 in 10.0 mi ENE 6.9 mph - N/A   Partly Cloudy
6:55 PM 19.4 °F 9.5 °F 19.4 °F 100% 29.47 in 10.0 mi ENE 8.1 mph - N/A   Mostly Cloudy
7:15 PM 21.2 °F 12.6 °F 21.2 °F 100% 29.47 in 10.0 mi NE 6.9 mph - N/A   Mostly Cloudy
7:35 PM 21.2 °F 16.4 °F 21.2 °F 100% 29.47 in 10.0 mi NNE 3.5 mph - N/A Snow Light Snow
7:55 PM 21.2 °F 13.6 °F 21.2 °F 100% 29.46 in 10.0 mi NE 5.8 mph - N/A   Mostly Cloudy
8:15 PM 23.0 °F 13.9 °F 23.0 °F 100% 29.47 in 9.0 mi NE 8.1 mph - N/A Snow Light Snow
8:35 PM 23.0 °F 17.0 °F 23.0 °F 100% 29.48 in 10.0 mi NE 4.6 mph - N/A Snow Light Snow
8:55 PM 23.0 °F 18.4 °F 23.0 °F 100% 29.48 in 10.0 mi NNE 3.5 mph - N/A   Overcast
9:15 PM 23.0 °F 18.4 °F 23.0 °F 100% 29.48 in 10.0 mi North 3.5 mph - N/A   Mostly Cloudy
9:35 PM 23.0 °F 17.0 °F 23.0 °F 100% 29.48 in 9.0 mi North 4.6 mph - N/A Snow Light Snow
9:55 PM 23.0 °F 18.4 °F 23.0 °F 100% 29.50 in 9.0 mi NNW 3.5 mph - 0.01 in Snow Light Snow
10:15 PM 23.0 °F 15.8 °F 23.0 °F 100% 29.51 in 10.0 mi NNW 5.8 mph - N/A   Overcast
10:35 PM 23.0 °F 14.7 °F 23.0 °F 100% 29.53 in 10.0 mi NW 6.9 mph - N/A   Overcast
10:55 PM 23.0 °F 14.7 °F 23.0 °F 100% 29.55 in 1.5 mi WNW 6.9 mph - 0.15 in Snow Light Snow
11:15 PM 23.0 °F 12.4 °F 23.0 °F 100% 29.56 in 7.0 mi WNW 10.4 mph - N/A Snow Light Snow
11:35 PM 26.6 °F 13.8 °F 26.6 °F 100% 29.57 in 10.0 mi NW 17.3 mph 21.9 mph N/A   Mostly Cloudy
11:55 PM 28.4 °F 12.0 °F 26.6 °F 93% 29.58 in 0.8 mi NW 33.4 mph 42.6 mph 0.01 in   Overcast